1505358000.28,11585,15.06,73520.5,4.45,-14.65,-13.69,0,*7B
1505358001.48,11586,15.06,73542.0,4.45,-14.65,-12.89,0,*77
1505358002.71,11587,15.13,73568.8,4.45,-14.29,-11.93,0,*76
1505358003.97,11588,15.06,73508.0,4.47,-13.97,-10.89,0,*73
1505358005.19,11589,15.06,73470.5,4.47,-13.43,-9.79,0,*4C
1505358006.44,11590,15.13,73486.3,4.47,-13.43,-9.11,0,*4A
1505358007.66,11591,15.06,73494.5,4.47,-13.51,-8.29,0,*42
1505358008.9,11592,15.06,73504.3,4.47,-13.15,-7.43,0,*42
1505358010.1,11593,15.06,73522.3,4.49,-12.43,-6.31,0,*4B
1505358011.36,11594,15.06,73500.3,4.49,-12.11,-5.61,0,*4D
1505358012.6,11595,15.06,73482.5,4.51,-11.41,-4.81,0,*4C
1505358013.82,11596,15.06,73470.3,4.49,-10.71,-3.95,0,*46
1505358015.0,11597,15.06,73466.3,4.49,-9.89,-3.19,0,*7C
1505358016.27,11598,15.13,73492.8,4.51,-9.37,-2.75,0,*74
1505358017.48,11599,15.13,73470.5,4.49,-8.29,-1.95,0,*7F
1505358018.72,11600,15.13,73484.8,4.49,-7.61,-1.43,0,*74
1505358019.93,11601,15.06,73518.5,4.51,-7.15,-1.25,0,*7F
1505358021.16,11602,15.13,73530.8,4.51,-6.69,-1.13,0,*73
1505358022.39,11603,15.06,73520.5,4.51,-6.09,-0.85,0,*4A
1505358023.6,11604,15.06,73538.3,4.49,-5.65,-0.57,0,*42
1505358024.85,11605,15.13,73554.5,4.51,-4.93,-0.27,0,*45
1505358026.09,11606,15.13,73518.5,4.51,-3.91,0.37,0,*6F
1505358027.31,11607,15.13,73524.5,4.51,-3.23,0.67,0,*62
1505358028.55,11608,15.13,73520.3,4.51,-2.67,0.67,0,*6C
1505358029.77,11609,15.06,73528.5,4.51,-2.23,0.71,0,*6A
1505358031.0,11610,15.06,73490.3,4.51,-1.63,0.87,0,*6C
1505358032.23,11611,15.06,73502.5,4.55,-0.97,1.01,0,*6C
1505358033.42,11612,15.13,73504.5,4.53,-0.77,0.95,0,*5B
1505358034.59,11613,15.06,73482.3,4.53,-0.49,0.97,0,*55
1505358035.82,11614,15.06,73488.8,4.55,-0.33,0.91,0,*5F
1505358037.02,11615,15.06,73506.5,4.53,-0.15,0.83,0,*5F
1505358038.2,11616,15.06,73520.3,4.53,0.33,0.97,0,*70
1505358039.45,11617,15.06,73502.8,4.55,0.47,1.09,0,*42
1505358040.67,11618,15.06,73500.3,4.55,0.97,1.43,0,*4E
1505358041.92,11619,15.13,73496.8,4.55,0.79,1.25,0,*4F
1505358043.17,11620,15.06,73480.3,4.55,1.13,1.71,0,*79
1505358044.4,11621,15.13,73492.5,4.55,1.01,1.47,0,*7E
1505358045.62,11622,15.13,73506.3,4.55,1.01,1.43,0,*79
1505358046.87,11623,15.13,73522.5,4.55,1.09,1.63,0,*72
1505358048.13,11624,15.06,73516.0,4.55,1.13,1.59,0,*77
1505358049.38,11625,15.06,73476.0,4.55,1.13,1.47,0,*79
1505358050.64,11626,15.13,73508.5,4.55,1.09,1.47,0,*71
1505358051.89,11627,15.06,73500.3,4.55,1.09,1.47,0,*70
1505358053.12,11628,15.06,73500.0,4.57,1.29,1.63,0,*79
1505358054.34,11629,15.06,73502.5,4.57,1.25,1.47,0,*72
1505358055.57,11630,15.13,73486.5,4.57,1.37,1.47,0,*79
1505358056.79,11631,15.06,73486.3,4.57,1.51,1.51,0,*7F
1505358057.99,11632,15.13,73484.5,4.61,1.63,1.41,0,*79
1505358059.2,11633,15.06,73466.8,4.61,1.75,1.29,0,*71
1505358060.41,11634,15.06,73448.8,4.57,1.67,0.95,0,*46
1505358061.64,11635,15.06,73478.5,4.57,1.55,0.63,0,*4F
1505358062.87,11636,15.06,73494.8,4.61,1.55,0.29,0,*47
1505358064.08,11637,15.13,73514.5,4.61,1.47,-0.11,0,*63
1505358065.32,11638,15.13,73526.8,4.63,1.55,-0.41,0,*68
1505358066.57,11639,15.13,73518.5,4.63,1.43,-0.93,0,*61
1505358067.83,11640,15.06,73510.3,4.63,1.51,-1.47,0,*54
1505358069.06,11641,15.06,73492.5,4.63,1.51,-2.15,0,*51
1505358070.26,11642,15.06,73514.5,4.65,1.43,-2.79,0,*5D
1505358071.49,11643,15.13,73522.0,4.63,1.41,-3.51,0,*53
1505358072.72,11644,15.06,73536.3,4.63,1.43,-4.33,0,*55
1505358073.97,11645,15.06,73542.0,4.63,1.21,-5.43,0,*56
1505358075.18,11646,15.06,73564.3,4.63,1.05,-6.55,0,*57
1505358076.44,11647,15.06,73534.8,4.63,0.71,-7.61,0,*62
1505358077.65,11648,15.06,73530.5,4.65,0.25,-8.81,0,*6B
1505358078.88,11649,15.06,73532.0,4.63,-0.41,-10.15,0,*77
1505358080.11,11650,15.06,73544.3,4.65,-1.17,-11.29,0,*45
1505358081.32,11651,15.13,73562.8,4.65,-2.15,-12.57,0,*4F
1505358082.5,11652,15.06,73528.8,4.65,-3.19,-13.69,0,*4D
1505358083.74,11653,15.06,73522.5,4.63,-4.45,-14.79,0,*42
1505358084.96,11654,15.06,73548.0,4.63,-5.43,-15.71,0,*4B
1505358086.21,11655,15.13,73542.3,4.63,-6.39,-16.31,0,*43
1505358087.46,11656,15.13,73528.8,4.63,-7.35,-16.75,0,*4D
1505358088.73,11657,15.06,73526.5,4.63,-8.11,-17.17,0,*40
1505358089.96,11658,15.06,73522.0,4.61,-9.05,-17.25,0,*48
1505358091.21,11659,15.13,73538.0,4.63,-9.49,-17.35,0,*42
1505358092.42,11660,15.13,73550.3,4.61,-9.89,-17.25,0,*47
1505358093.64,11661,15.06,73524.3,4.63,-10.19,-17.31,0,*70
1505358094.89,11662,15.06,73540.3,4.63,-10.53,-17.17,0,*79
1505358096.14,11663,15.06,73554.0,4.61,-10.71,-17.03,0,*7F
1505358097.38,11664,15.06,73582.8,4.61,-11.01,-17.03,0,*7E
1505358098.64,11665,15.06,73562.8,4.61,-11.29,-17.03,0,*75
1505358099.89,11666,15.06,73566.8,4.61,-11.55,-17.17,0,*78
1505358101.14,11667,15.06,73574.3,4.61,-11.89,-17.17,0,*78
1505358102.4,11668,15.06,73576.3,4.57,-12.15,-17.07,0,*75
1505358103.6,11669,15.06,73578.0,4.61,-12.43,-16.79,0,*7A
1505358104.85,11670,15.06,73584.5,4.61,-12.61,-16.65,0,*7F
1505358106.07,11671,15.06,73576.3,4.61,-12.83,-16.45,0,*70
1505358107.29,11672,15.06,73572.3,4.57,-13.15,-16.17,0,*7F
1505358108.52,11673,15.06,73588.0,4.57,-13.23,-15.89,0,*7F
1505358109.75,11674,15.06,73564.8,4.57,-13.29,-15.63,0,*76
1505358110.97,11675,15.06,73556.0,4.57,-13.23,-15.35,0,*7E
1505358112.2,11676,15.06,73556.3,4.57,-12.97,-14.97,0,*7A
1505358113.46,11677,15.06,73540.0,4.61,-12.75,-14.75,0,*7E
1505358114.66,11678,15.13,73542.5,4.61,-12.43,-14.61,0,*71
1505358115.87,11679,15.06,73548.3,4.57,-12.03,-14.43,0,*71
1505358117.1,11680,15.06,73562.3,4.57,-11.85,-14.29,0,*76
1505358118.35,11681,15.06,73556.0,4.55,-11.63,-14.29,0,*7D
1505358119.58,11682,15.06,73544.0,4.55,-11.45,-14.19,0,*79
1505358120.81,11683,15.06,73540.3,4.57,-11.29,-14.23,0,*79
1505358122.03,11684,15.06,73530.8,4.57,-11.33,-14.23,0,*75
1505358123.23,11685,15.13,73522.0,4.57,-11.41,-14.37,0,*74
1505358124.48,11686,15.06,73478.3,4.57,-11.55,-14.43,0,*71
1505358125.75,11687,15.06,73468.8,4.55,-11.81,-14.51,0,*78
1505358127.03,11688,15.06,73544.0,4.55,-11.93,-14.51,0,*74
1505358128.26,11689,15.06,73560.3,4.55,-12.21,-14.61,0,*7C
1505358129.47,11690,15.13,73536.5,4.53,-12.47,-14.65,0,*76
1505358130.74,11691,15.06,73526.0,4.55,-12.79,-14.75,0,*7D
1505358131.99,11692,15.06,73526.5,4.55,-13.07,-14.79,0,*7A
1505358133.24,11693,15.06,73518.8,4.57,-13.37,-14.75,0,*76
1505358134.47,11694,15.06,73502.0,4.53,-13.69,-14.83,0,*77
1505358135.75,11695,15.06,73506.0,4.55,-13.79,-14.83,0,*71
1505358137.01,11696,15.06,73496.3,4.53,-13.97,-14.83,0,*74
1505358138.27,11697,15.06,73542.0,4.53,-14.05,-14.55,0,*72
1505358139.5,11698,15.06,73514.5,4.53,-14.05,-14.33,0,*7D
1505358140.76,11699,15.06,73574.0,4.53,-14.05,-14.05,0,*79
1505358141.99,11700,15.06,73576.0,4.53,-14.33,-14.05,0,*7D
1505358143.24,11701,15.06,73544.3,4.55,-14.43,-13.65,0,*7C
1505358144.46,11702,15.06,73572.0,4.53,-14.79,-13.65,0,*70
1505358145.67,11703,15.06,73560.8,4.53,-14.97,-13.47,0,*71
1505358146.93,11704,15.06,73606.0,4.53,-14.83,-12.83,0,*7A
1505358148.18,11705,15.06,73594.8,4.53,-14.83,-12.61,0,*77
1505358149.44,11706,15.06,73532.5,4.53,-14.47,-11.97,0,*76
1505358150.68,11707,15.06,73510.5,4.53,-14.15,-11.51,0,*7A
1505358151.92,11708,15.06,73510.5,4.53,-13.83,-10.97,0,*76
1505358153.13,11709,15.06,73566.8,4.53,-13.23,-10.31,0,*71
1505358154.39,11710,15.06,73540.5,4.55,-12.61,-9.57,0,*40
1505358155.62,11711,15.06,73472.5,4.53,-11.93,-8.93,0,*40
1505358156.86,11712,15.06,73456.5,4.55,-11.37,-8.37,0,*45
1505358158.11,11713,15.06,73462.8,4.55,-11.23,-8.07,0,*42
1505358159.34,11714,15.06,73460.3,4.55,-10.97,-7.83,0,*48
1505358160.59,11715,15.06,73482.5,4.55,-10.49,-7.27,0,*44
1505358161.83,11716,15.06,73490.8,4.55,-9.79,-6.63,0,*7D
1505358163.04,11717,15.06,73490.3,4.53,-9.49,-6.13,0,*7E
1505358164.29,11718,15.06,73490.3,4.55,-9.01,-5.69,0,*75
1505358165.48,11719,15.06,73502.8,4.57,-8.55,-4.99,0,*78
1505358166.71,11720,15.06,73494.3,4.55,-8.03,-4.49,0,*7E
1505358167.95,11721,15.06,73518.5,4.55,-7.65,-4.05,0,*78
1505358169.18,11722,15.06,73508.0,4.57,-7.05,-3.55,0,*7D
1505358170.39,11723,15.06,73482.0,4.55,-6.47,-3.19,0,*71
1505358171.6,11724,15.06,73414.3,4.55,-6.05,-3.11,0,*78
1505358172.83,11725,15.06,73364.8,4.55,-5.73,-3.07,0,*7C
1505358174.05,11726,15.06,73376.3,4.55,-5.55,-3.19,0,*74
1505358175.25,11727,15.06,73380.3,4.57,-5.27,-3.15,0,*7E
1505358176.5,11728,15.06,73396.8,4.55,-5.15,-3.27,0,*73
1505358177.74,11729,15.06,73408.5,4.55,-5.03,-3.39,0,*7A
1505358178.97,11730,15.06,73418.3,4.57,-4.89,-3.59,0,*75
1505358180.18,11731,15.06,73420.8,4.57,-4.85,-3.79,0,*7A
1505358181.41,11732,15.06,73440.5,4.57,-4.85,-4.01,0,*71
1505358182.64,11733,15.06,73438.8,4.55,-4.85,-4.25,0,*74
1505358183.88,11734,15.06,73424.5,4.55,-4.73,-4.53,0,*7B
1505358185.09,11735,15.06,73442.5,4.57,-4.49,-4.69,0,*78
1505358186.28,11736,15.06,73436.8,4.57,-4.25,-4.99,0,*7E
1505358187.5,11737,15.06,73486.5,4.57,-4.13,-5.23,0,*7A
1505358188.69,11738,15.06,73484.0,4.57,-4.09,-5.39,0,*75
1505358189.9,11739,15.06,73492.3,4.57,-4.09,-5.69,0,*71
1505358191.13,11740,15.06,73492.8,4.61,-3.95,-5.93,0,*7D
1505358192.34,11741,15.06,73500.8,4.57,-4.09,-6.27,0,*77
1505358193.55,11742,15.06,73518.8,4.55,-4.13,-6.47,0,*7B
1505358194.8,11743,15.06,73516.8,4.55,-4.25,-6.63,0,*79
1505358196.02,11744,15.06,73524.3,4.57,-4.21,-6.93,0,*77
1505358197.23,11745,15.06,73536.0,4.57,-4.33,-7.05,0,*7B
1505358198.44,11746,15.06,73534.0,4.61,-4.37,-7.31,0,*7E
1505358199.62,11747,15.06,73528.5,4.57,-4.37,-7.53,0,*7E
1505358200.84,11748,15.06,73536.5,4.57,-4.33,-7.73,0,*77
1505358202.05,11749,15.06,73538.5,4.57,-4.25,-7.99,0,*75
1505358203.24,11750,15.06,73540.0,4.57,-4.25,-8.17,0,*74
1505358204.43,11751,15.06,73550.0,4.57,-4.13,-8.45,0,*77
1505358205.61,11752,15.06,73550.3,4.57,-4.13,-8.71,0,*73
1505358206.8,11753,15.06,73570.0,4.57,-4.13,-8.97,0,*7A
1505358208.01,11754,15.06,73574.8,4.55,-4.17,-9.27,0,*71
1505358209.25,11755,15.06,73580.0,4.55,-4.17,-9.53,0,*73
1505358210.47,11756,15.06,73574.3,4.55,-4.25,-9.79,0,*79
1505358211.68,11757,15.06,73570.3,4.53,-4.29,-10.15,0,*40
1505358212.92,11758,15.06,73578.0,4.55,-4.49,-10.41,0,*4E
1505358214.16,11759,15.06,73570.8,4.53,-4.77,-10.79,0,*4F
1505358215.4,11760,15.06,73556.8,4.55,-4.85,-10.93,0,*4A
1505358216.65,11761,15.06,73562.0,4.55,-5.07,-11.19,0,*43
1505358217.91,11762,15.06,73556.8,4.55,-5.27,-11.33,0,*4A
1505358219.13,11763,15.06,73568.8,4.55,-5.43,-11.45,0,*48
1505358220.35,11764,15.06,73576.5,4.53,-5.61,-11.41,0,*4D
1505358221.58,11765,15.06,73580.8,4.55,-5.55,-11.45,0,*49
1505358222.8,11766,15.06,73572.0,4.53,-5.73,-11.41,0,*4C
1505358224.04,11767,15.06,73564.3,4.55,-5.81,-11.23,0,*42
1505358225.26,11768,15.06,73556.0,4.53,-5.89,-11.23,0,*43
1505358226.51,11769,15.06,73562.3,4.55,-5.85,-11.19,0,*41
1505358227.73,11770,15.06,73574.0,4.55,-6.05,-11.11,0,*4A
1505358228.93,11771,15.06,73580.3,4.53,-6.13,-11.23,0,*4B
1505358230.14,11772,15.06,73572.8,4.53,-6.23,-11.23,0,*4B
1505358231.39,11773,15.06,73548.8,4.53,-6.23,-11.37,0,*4F
1505358232.61,11774,15.06,73558.0,4.53,-6.39,-11.51,0,*43
1505358233.85,11775,15.06,73570.3,4.55,-6.59,-12.07,0,*42
1505358235.11,11776,15.06,73594.5,4.53,-7.05,-12.71,0,*4E
1505358236.32,11777,15.06,73586.3,4.53,-7.27,-13.23,0,*49
1505358237.57,11778,15.06,73628.5,4.53,-7.57,-13.83,0,*4B
1505358238.82,11779,15.06,73628.8,4.53,-7.95,-14.47,0,*4B
1505358240.02,11780,15.06,73588.0,4.53,-8.41,-15.07,0,*4E
1505358241.24,11781,15.06,73530.3,4.55,-8.75,-15.67,0,*48
1505358242.46,11782,15.06,73518.0,4.53,-9.37,-16.45,0,*49
1505358243.65,11783,15.06,73498.3,4.53,-9.75,-16.97,0,*41
1505358244.87,11784,15.06,73578.5,4.51,-10.45,-17.73,0,*74
1505358246.15,11785,15.06,73570.3,4.51,-10.71,-18.01,0,*78
1505358247.36,11786,15.06,73604.5,4.51,-11.15,-18.41,0,*7C
1505358248.61,11787,15.06,73574.5,4.51,-11.37,-18.69,0,*77
1505358249.86,11788,15.06,73586.3,4.51,-11.85,-19.13,0,*7D
1505358251.13,11789,15.06,73586.0,4.51,-12.07,-19.41,0,*72
1505358252.39,11790,15.06,73570.3,4.51,-12.21,-19.27,0,*7E
1505358253.61,11791,15.06,73558.8,4.49,-12.43,-19.31,0,*75
1505358254.88,11792,15.06,73558.3,4.51,-12.71,-19.41,0,*79
1505358256.13,11793,15.06,73568.8,4.49,-12.83,-19.31,0,*7B
1505358257.37,11794,15.06,73568.8,4.51,-12.79,-18.99,0,*73
1505358258.6,11795,15.06,73576.0,4.49,-12.97,-18.89,0,*7A
1505358259.8,11796,15.06,73564.3,4.49,-12.97,-18.69,0,*77
1505358261.04,11797,15.06,73548.5,4.51,-12.83,-18.41,0,*70
1505358262.27,11798,15.06,73446.0,4.51,-13.19,-18.65,0,*7B
1505358263.51,11799,15.06,73426.3,4.51,-13.65,-18.93,0,*78
1505358264.78,11800,15.06,73480.3,4.51,-13.79,-18.93,0,*7A
1505358266.06,11801,15.06,73458.5,4.51,-13.83,-18.93,0,*7E
1505358267.31,11802,15.06,73460.0,4.51,-14.05,-18.79,0,*70
1505358268.55,11803,15.06,73452.5,4.51,-13.79,-18.41,0,*76
1505358269.77,11804,15.06,73468.5,4.51,-13.65,-18.17,0,*7F
1505358271.02,11805,15.06,73488.0,4.51,-13.79,-18.07,0,*72
1505358272.23,11806,15.06,73472.3,4.51,-13.93,-18.17,0,*74
1505358273.49,11807,15.06,73522.8,4.51,-13.97,-18.07,0,*70
1505358274.72,11808,15.06,73514.0,4.51,-14.23,-18.17,0,*76
1505358275.92,11809,15.06,73522.0,4.53,-14.37,-18.07,0,*71
1505358277.18,11810,15.06,73516.3,4.53,-14.47,-17.93,0,*7C
1505358278.43,11811,15.06,73500.0,4.51,-14.33,-17.63,0,*73
1505358279.65,11812,15.06,73500.0,4.51,-14.37,-17.49,0,*7C
1505358280.93,11813,15.06,73490.3,4.51,-14.51,-17.45,0,*71
1505358282.2,11814,15.06,73488.0,4.51,-14.51,-17.25,0,*70
1505358283.46,11815,15.06,73496.5,4.51,-14.51,-16.97,0,*79
1505358284.72,11816,15.06,73486.0,4.49,-14.47,-16.51,0,*7E
1505358285.92,11817,15.06,73500.5,4.49,-14.23,-16.03,0,*7A
1505358287.18,11818,15.06,73490.5,4.51,-14.37,-15.85,0,*74
1505358288.43,11819,15.06,73442.5,4.51,-13.97,-15.11,0,*75
1505358289.68,11820,15.06,73442.0,4.51,-13.97,-14.69,0,*71
1505358290.91,11821,15.06,73434.0,4.51,-14.11,-14.37,0,*72
1505358292.13,11822,15.13,73420.5,4.51,-13.93,-13.93,0,*75
1505358293.38,11823,15.06,73418.3,4.53,-13.79,-13.61,0,*7F
1505358294.6,11824,15.06,73398.8,4.53,-13.79,-13.07,0,*78
1505358295.85,11825,15.06,73418.0,4.53,-13.61,-12.61,0,*71
1505358297.1,11826,15.06,73454.5,4.51,-13.07,-12.07,0,*70
1505358298.33,11827,15.06,73444.3,4.49,-12.83,-11.41,0,*74
1505358299.58,11828,15.06,73482.5,4.51,-12.25,-10.71,0,*7C
1505358300.83,11829,15.06,73480.5,4.51,-11.77,-10.01,0,*7E
1505358302.06,11830,15.06,73500.3,4.53,-11.15,-9.37,0,*4D
1505358303.25,11831,15.06,73494.0,4.53,-10.45,-8.93,0,*47
1505358304.44,11832,15.06,73514.0,4.53,-10.01,-8.41,0,*4B
1505358305.67,11833,15.06,73506.5,4.53,-9.49,-7.95,0,*78
1505358306.93,11834,15.06,73500.0,4.53,-9.15,-7.61,0,*7D
1505358308.15,11835,15.06,73502.3,4.53,-8.67,-7.43,0,*78
1505358309.37,11836,15.06,73524.0,4.53,-8.37,-7.27,0,*7C
1505358310.56,11837,15.06,73522.0,4.53,-8.21,-7.19,0,*77
1505358311.8,11838,15.06,73560.0,4.55,-7.83,-6.97,0,*7E
1505358313.03,11839,15.06,73518.8,4.51,-7.57,-6.69,0,*73
1505358314.26,11840,15.06,73548.8,4.51,-7.39,-6.69,0,*75
1505358315.5,11841,15.06,73554.5,4.51,-7.15,-6.63,0,*70
1505358316.72,11842,15.06,73552.8,4.51,-6.81,-6.51,0,*7E
1505358317.91,11843,15.06,73550.0,4.53,-6.51,-6.47,0,*77
1505358319.13,11844,15.06,73564.3,4.53,-6.23,-6.35,0,*70
1505358320.34,11845,15.06,73562.3,4.53,-5.73,-6.13,0,*73
1505358321.52,11846,15.06,73580.3,4.53,-5.43,-5.97,0,*7C
1505358322.76,11847,15.06,73540.0,4.53,-4.89,-5.69,0,*7B
1505358323.95,11848,15.06,73532.0,4.53,-4.17,-4.99,0,*7D
1505358325.17,11849,15.06,73510.3,4.53,-3.43,-4.33,0,*7A
1505358326.39,11850,15.06,73504.0,4.55,-3.35,-4.37,0,*71
1505358327.61,11851,15.06,73496.5,4.55,-3.27,-4.29,0,*7C
1505358328.85,11852,15.06,73462.8,4.55,-2.63,-3.83,0,*79
1505358330.06,11853,15.06,73482.0,4.57,-2.59,-3.83,0,*73
1505358331.27,11854,15.06,73506.5,4.57,-2.55,-3.79,0,*7D
1505358332.47,11855,15.06,73520.5,4.57,-2.19,-3.47,0,*79
1505358333.67,11856,15.06,73516.5,4.57,-1.91,-3.23,0,*7B
1505358334.87,11857,15.06,73508.5,4.61,-1.67,-2.95,0,*7A
1505358336.08,11858,15.06,73482.5,4.57,-1.51,-2.71,0,*7F
1505358337.3,11859,15.06,73486.0,4.57,-1.17,-2.47,0,*79
1505358338.5,11860,15.06,73472.3,4.61,-1.17,-2.31,0,*77
1505358339.72,11861,15.06,73490.3,4.61,-1.09,-2.15,0,*7F
1505358340.96,11862,15.06,73496.0,4.61,-0.97,-1.91,0,*45
1505358342.15,11863,15.06,73482.5,4.61,-0.69,-1.71,0,*4B
1505358343.34,11864,15.06,73490.5,4.61,-0.57,-1.51,0,*43
1505358344.53,11865,15.06,73482.5,4.61,-0.53,-1.29,0,*49
1505358345.72,11866,15.06,73478.3,4.61,-0.41,-1.17,0,*44
1505358346.92,11867,15.06,73466.8,4.57,-0.33,-1.09,0,*4A
1505358348.14,11868,15.06,73462.5,4.61,-0.23,-0.93,0,*73
1505358349.34,11869,15.06,73468.0,4.57,-0.19,-0.85,0,*79
1505358350.53,11870,15.06,73482.3,4.61,-0.19,-0.69,0,*76
1505358351.7,11871,15.06,73484.8,4.57,-0.07,-0.57,0,*40
1505358352.87,11872,15.06,73494.8,4.61,0.01,-0.45,0,*6E
1505358354.07,11873,15.06,73492.0,4.61,0.17,-0.33,0,*59
1505358355.26,11874,15.06,73502.3,4.57,0.17,-0.19,0,*53
1505358356.45,11875,15.06,73496.0,4.61,0.29,0.09,0,*46
1505358357.67,11876,15.06,73518.5,4.61,0.33,0.21,0,*74
1505358358.86,11877,15.06,73522.3,4.61,0.33,0.43,0,*71
1505358360.07,11878,15.06,73512.8,4.61,0.51,0.67,0,*7C
1505358361.29,11879,15.06,73504.5,4.61,0.51,0.79,0,*72
1505358362.51,11880,15.06,73508.0,4.61,0.67,0.91,0,*77
1505358363.72,11881,15.06,73530.5,4.61,0.67,0.91,0,*76
1505358364.92,11882,15.06,73548.3,4.61,0.83,1.01,0,*47
1505358366.12,11883,15.06,73552.5,4.61,0.83,1.01,0,*46
1505358367.31,11884,15.06,73552.8,4.61,0.95,1.01,0,*46
1505358368.49,11885,15.06,73578.3,4.61,1.01,1.05,0,*7F
1505358369.67,11886,15.06,73502.0,4.61,1.05,1.05,0,*78
1505358370.85,11887,15.06,73488.0,4.57,1.05,1.05,0,*7C
1505358372.03,11888,15.06,73518.8,4.57,1.05,1.05,0,*73
1505358373.21,11889,15.06,73500.0,4.61,1.05,1.05,0,*77
1505358374.42,11890,15.06,73508.8,4.61,1.13,1.01,0,*7C
1505358375.63,11891,15.06,73520.8,4.61,1.13,1.01,0,*7D
1505358376.83,11892,15.06,73522.0,4.61,1.05,0.83,0,*42
1505358378.03,11893,15.06,73524.3,4.61,1.05,0.79,0,*46
1505358379.26,11894,15.06,73522.3,4.61,0.91,0.63,0,*76
1505358380.48,11895,15.06,73516.5,4.61,0.79,0.41,0,*71
1505358381.7,11896,15.06,73524.5,4.61,0.75,0.29,0,*70
1505358382.89,11897,15.06,73506.5,4.61,0.55,0.09,0,*41
1505358384.07,11898,15.06,73500.5,4.57,0.67,0.01,0,*42
1505358385.27,11899,15.06,73496.8,4.61,0.67,-0.19,0,*52
1505358386.46,11900,15.06,73500.5,4.57,0.51,-0.53,0,*5D
1505358387.67,11901,15.06,73498.0,4.57,0.33,-0.85,0,*53
1505358388.88,11902,15.06,73448.8,4.61,0.17,-1.21,0,*6C
1505358390.07,11903,15.06,73472.0,4.57,-0.11,-1.71,0,*46
1505358391.27,11904,15.06,73456.0,4.57,-0.33,-2.07,0,*43
1505358392.46,11905,15.06,73462.8,4.61,-0.45,-2.43,0,*46
1505358393.67,11906,15.06,73490.3,4.61,-0.93,-2.95,0,*45
1505358394.87,11907,15.06,73462.5,4.61,-1.17,-3.31,0,*76
1505358396.08,11908,15.06,73516.3,4.61,-1.71,-3.71,0,*7D
1505358397.32,11909,15.06,73478.0,4.63,-2.03,-4.29,0,*72
1505358398.51,11910,15.06,73478.5,4.61,-2.79,-4.99,0,*7E
1505358399.74,11911,15.06,73496.8,4.61,-3.35,-5.61,0,*70
1505358400.96,11912,15.06,73498.0,4.61,-3.95,-5.93,0,*74
1505358402.16,11913,15.06,73494.3,4.61,-4.61,-6.31,0,*72
1505358403.37,11914,15.06,73538.3,4.61,-5.11,-6.55,0,*71
1505358404.59,11915,15.06,73540.3,4.61,-5.65,-6.73,0,*77
1505358405.8,11916,15.06,73542.3,4.61,-6.13,-6.93,0,*78
1505358407.02,11917,15.06,73574.3,4.63,-6.47,-7.19,0,*79
1505358408.26,11918,15.06,73538.5,4.63,-6.55,-7.27,0,*78
1505358409.51,11919,15.06,73518.0,4.63,-6.81,-7.27,0,*70
1505358410.78,11920,15.06,73542.0,4.63,-6.93,-7.43,0,*7B
1505358411.98,11921,15.06,73542.3,4.61,-7.11,-7.53,0,*72
1505358413.19,11922,15.06,73526.8,4.61,-7.35,-7.87,0,*7E
1505358414.41,11923,15.06,73504.8,4.61,-7.49,-8.11,0,*74
1505358415.59,11924,15.06,73510.5,4.61,-7.87,-8.59,0,*7D
1505358416.79,11925,15.06,73504.0,4.61,-8.17,-9.05,0,*72
1505358418.01,11926,15.06,73490.5,4.61,-8.55,-9.41,0,*77
1505358419.2,11927,15.06,73498.3,4.57,-8.97,-9.79,0,*76
1505358420.42,11928,15.06,73476.0,4.61,-9.41,-10.23,0,*41
1505358421.62,11929,15.06,73462.5,4.61,-9.79,-10.57,0,*48
1505358422.85,11930,15.06,73446.5,4.61,-10.31,-11.07,0,*70
1505358424.08,11931,15.06,73476.3,4.61,-10.85,-11.55,0,*79
1505358425.3,11932,15.06,73500.5,4.61,-11.19,-11.85,0,*73
1505358426.56,11933,15.06,73504.3,4.61,-11.55,-12.11,0,*74
1505358427.79,11934,15.06,73510.3,4.61,-11.85,-12.29,0,*75
1505358429.04,11935,15.06,73506.8,4.57,-12.11,-12.53,0,*72
1505358430.27,11936,15.06,73524.5,4.57,-12.29,-12.75,0,*7E
1505358431.51,11937,15.06,73544.3,4.57,-12.71,-13.01,0,*70
1505358432.75,11938,15.06,73546.5,4.57,-12.83,-13.01,0,*72
1505358434.0,11939,15.06,73564.0,4.57,-13.01,-13.01,0,*78
1505358435.2,11940,15.06,73572.0,4.61,-13.15,-13.11,0,*77
1505358436.42,11941,15.06,73576.3,4.57,-13.37,-13.11,0,*73
1505358437.62,11942,15.06,73560.5,4.57,-13.43,-13.11,0,*73
1505358438.85,11943,15.06,73570.8,4.57,-13.51,-13.01,0,*70
1505358440.05,11944,15.06,73596.3,4.57,-13.55,-12.97,0,*7D
1505358441.3,11945,15.06,73576.3,4.57,-13.61,-12.83,0,*7E
1505358442.52,11946,15.06,73574.5,4.57,-13.73,-12.83,0,*7E
1505358443.75,11947,15.06,73570.5,4.57,-13.73,-12.71,0,*72
1505358445.01,11948,15.06,73570.5,4.55,-13.73,-12.75,0,*7B
1505358446.21,11949,15.06,73570.3,4.57,-13.69,-12.43,0,*76
1505358447.41,11950,15.06,73554.0,4.57,-13.55,-12.29,0,*7D
1505358448.6,11951,15.06,73572.3,4.57,-13.15,-12.25,0,*74
1505358449.89,11952,15.06,73568.5,4.55,-12.75,-12.07,0,*72
1505358451.13,11953,15.06,73556.3,4.55,-12.43,-12.07,0,*76
1505358452.36,11954,15.06,73554.3,4.55,-12.03,-12.03,0,*71
1505358453.63,11955,15.06,73516.5,4.55,-11.73,-11.93,0,*7E
1505358454.86,11956,15.06,73516.5,4.53,-11.51,-12.21,0,*71
1505358456.11,11957,15.06,73516.3,4.55,-11.23,-12.15,0,*74
1505358457.34,11958,15.06,73552.8,4.55,-11.11,-12.29,0,*75
1505358458.57,11959,15.06,73550.3,4.55,-10.93,-12.29,0,*7F
1505358459.8,11960,15.06,73578.5,4.53,-11.01,-12.53,0,*74
1505358461.04,11961,15.06,73594.3,4.53,-11.23,-12.71,0,*75
1505358462.29,11962,15.06,73610.5,4.53,-11.51,-12.83,0,*7E
1505358463.52,11963,15.06,73604.0,4.53,-11.93,-12.93,0,*70
1505358464.8,11964,15.06,73614.8,4.55,-12.07,-12.79,0,*7B
1505358466.03,11965,15.06,73600.0,4.53,-12.47,-12.61,0,*71
1505358467.25,11966,15.06,73588.8,4.53,-12.83,-12.39,0,*77
1505358468.48,11967,15.06,73578.5,4.53,-13.19,-12.11,0,*7E
1505358469.74,11968,15.06,73564.8,4.53,-13.61,-11.85,0,*70
1505358470.97,11969,15.06,73574.8,4.53,-13.93,-11.63,0,*74
1505358472.23,11970,15.06,73566.3,4.53,-14.47,-11.29,0,*7C
1505358473.43,11971,15.06,73524.8,4.53,-14.65,-10.93,0,*7D
1505358474.71,11972,15.06,73510.8,4.55,-14.79,-10.63,0,*7A
1505358475.96,11973,15.06,73532.0,4.51,-14.83,-10.05,0,*7A
1505358477.2,11974,15.06,73526.8,4.51,-14.83,-9.75,0,*42
1505358478.42,11975,15.06,73508.8,4.53,-14.69,-9.15,0,*43
1505358479.6,11976,15.06,73496.8,4.53,-14.65,-8.75,0,*4B
1505358480.85,11977,15.06,73488.5,4.51,-14.51,-8.25,0,*4A
1505358482.07,11978,15.06,73490.5,4.51,-14.19,-7.87,0,*4E
1505358483.32,11979,15.06,73592.3,4.51,-13.69,-7.39,0,*4A
1505358484.56,11980,15.06,73546.0,4.51,-13.07,-7.01,0,*4F
1505358485.8,11981,15.06,73604.8,4.51,-12.65,-6.73,0,*4F
1505358487.03,11982,15.06,73642.5,4.53,-11.93,-6.51,0,*44
1505358488.23,11983,15.06,73618.0,4.53,-11.41,-6.35,0,*48
1505358489.45,11984,15.06,73624.0,4.53,-10.85,-6.23,0,*41
1505358490.66,11985,15.06,73600.8,4.51,-10.19,-5.97,0,*4B
1505358491.89,11986,15.06,73608.0,4.51,-9.83,-6.01,0,*7F
1505358493.13,11987,15.06,73572.5,4.51,-9.31,-5.89,0,*74
1505358494.33,11988,15.06,73546.3,4.53,-8.93,-6.01,0,*73
1505358495.52,11989,15.06,73538.8,4.53,-8.63,-5.97,0,*71
1505358496.76,11990,15.06,73546.0,4.51,-8.37,-5.85,0,*79
1505358498.03,11991,15.06,73544.5,4.51,-8.11,-5.85,0,*7C
1505358499.28,11992,15.06,73550.3,4.53,-7.99,-5.85,0,*72
1505358500.52,11993,15.06,73548.3,4.53,-7.99,-5.85,0,*73
1505358501.77,11994,15.06,73556.8,4.53,-7.99,-5.85,0,*74
1505358503.01,11995,15.06,73570.5,4.53,-7.99,-5.89,0,*79
1505358504.2,11996,15.06,73568.0,4.53,-8.29,-5.97,0,*71
1505358505.39,11997,15.06,73524.3,4.53,-8.63,-6.13,0,*71
1505358506.58,11998,15.06,73548.0,4.53,-8.89,-6.39,0,*72
1505358507.78,11999,15.06,73560.5,4.53,-9.23,-6.51,0,*7C
1505358509.01,12000,15.06,73580.5,4.53,-9.57,-6.63,0,*74
1505358510.21,12001,15.06,73612.3,4.53,-10.01,-6.77,0,*4B